{"data":{"norad_id":68533,"intl_designator":"2026-068AB","name":"STARLINK-36252","alt_names":[],"object_type":"PAYLOAD","status":"ACTIVE","operator":null,"country":"US","launch_date":"2026-03-30","launch_site_code":"AFETR","launch_vehicle":null,"mission":null,"orbit_class":"UNKNOWN","rcs_meters":null,"size_class":null,"mass_kg":null,"dimensions":null,"purposes":["comms"],"wikipedia_slug":null,"has_3d_model":false,"image_url":null,"decayed_at":null,"tle_current":{"epoch":"2026-09-19T19:54:43.632288Z","epoch_age_seconds":105193,"freshness":"FRESH","line1":"1 68533U 26068AB  26262.82967167  .00017843  00000+0  53818-3 0  9991","line2":"2 68533  53.1601 302.8886 0001096  85.8502 274.2626 15.34387049 26733","mean_motion":15.34387049,"eccentricity":0.0001096,"inclination_deg":53.1601,"raan_deg":302.8886,"arg_perigee_deg":85.8502,"mean_anomaly_deg":274.2626,"bstar":0.00053818,"rev_number":2673,"period_min":93.848550203711,"perigee_km":461.99197326995,"apogee_km":463.49149388836,"semimajor_km":6840.8787335792,"source":"CELESTRAK","updated_at":"2026-09-20T09:00:43.908522Z"}}}